FBU1455 MDPC-TNCM

Flight info

Callsign FBU1455
Flight time N/A
Altitude 33000
Route MELLA2W MELLA G633 MAZ RTE12 SJU RTE6 STT B520 PJM
Aircraft A35K/H-SDE2E3GHIJ3J4J5LM1ORWXY/LB1D1

Departure

Time 2026-04-28 16:36
Airport Punta Cana International Airport (MDPC)

Arrival

Time N/A
Airport Princess Juliana International Airport (TNCM)
Time Latitude Longitude Altitude Speed Heading
2026-04-28 16:25 18.56428 -68.36979 48 ft 4 kts 88°
2026-04-28 16:25 18.56425 -68.37007 48 ft 4 kts 66°
2026-04-28 16:26 18.56414 -68.37020 48 ft 1 kts
2026-04-28 16:26 18.56414 -68.37021 48 ft 0 kts
2026-04-28 16:27 18.56413 -68.37021 48 ft 0 kts
2026-04-28 16:33 18.56421 -68.37020 48 ft 5 kts
2026-04-28 16:33 18.56472 -68.37034 48 ft 9 kts 315°
2026-04-28 16:34 18.56491 -68.37109 51 ft 12 kts 269°
2026-04-28 16:34 18.56484 -68.37226 56 ft 20 kts 264°
2026-04-28 16:34 18.56470 -68.37392 52 ft 26 kts 263°
2026-04-28 16:34 18.56454 -68.37596 52 ft 29 kts 264°
2026-04-28 16:35 18.56452 -68.37725 50 ft 9 kts 284°
2026-04-28 16:35 18.56509 -68.37777 53 ft 15 kts 341°
2026-04-28 16:35 18.56602 -68.37742 50 ft 15 kts 58°
2026-04-28 16:35 18.56621 -68.37664 55 ft 0 kts 83°
2026-04-28 16:36 18.56628 -68.37600 58 ft 38 kts 84°
2026-04-28 16:36 18.56677 -68.37028 53 ft 116 kts 85°
2026-04-28 16:36 18.56768 -68.35950 103 ft 174 kts 84°
2026-04-28 16:36 18.56884 -68.34635 736 ft 188 kts 86°
2026-04-28 16:37 18.56976 -68.33190 1395 ft 208 kts 87°
2026-04-28 16:37 18.57075 -68.31603 1937 ft 229 kts 87°
2026-04-28 16:37 18.57013 -68.29846 2450 ft 249 kts 108°
2026-04-28 16:38 18.54737 -68.27083 4059 ft 262 kts 140°
2026-04-28 16:38 18.53344 -68.25825 4782 ft 264 kts 140°
2026-04-28 16:38 18.51911 -68.24599 5506 ft 267 kts 143°
2026-04-28 16:38 18.50425 -68.23409 6243 ft 270 kts 144°
2026-04-28 16:39 18.48917 -68.22205 6983 ft 275 kts 144°
2026-04-28 16:39 18.47379 -68.20974 7832 ft 280 kts 144°
2026-04-28 16:39 18.45804 -68.19747 8778 ft 283 kts 146°
2026-04-28 16:39 18.44251 -68.18441 9645 ft 289 kts 138°
2026-04-28 16:40 18.43005 -68.16739 10418 ft 301 kts 123°
2026-04-28 16:40 18.42018 -68.14697 10793 ft 325 kts 116°
2026-04-28 16:40 18.41198 -68.12425 11152 ft 345 kts 111°
2026-04-28 16:40 18.40477 -68.09965 11780 ft 355 kts 108°
2026-04-28 16:41 18.39803 -68.07442 12535 ft 361 kts 108°
2026-04-28 16:41 18.39126 -68.04879 13307 ft 366 kts 108°
2026-04-28 16:41 18.38423 -68.02285 14034 ft 371 kts 109°
2026-04-28 16:41 18.37691 -67.99664 14687 ft 375 kts 109°
2026-04-28 16:42 18.36933 -67.97013 15340 ft 380 kts 109°
2026-04-28 16:42 18.36154 -67.94336 15982 ft 385 kts 110°
2026-04-28 16:42 18.35360 -67.91631 16621 ft 389 kts 110°
2026-04-28 16:42 18.34555 -67.88894 17276 ft 393 kts 110°
2026-04-28 16:43 18.33751 -67.86164 17917 ft 398 kts 110°
2026-04-28 16:43 18.32929 -67.83369 18529 ft 402 kts 110°
2026-04-28 16:43 18.32095 -67.80533 19058 ft 407 kts 110°
2026-04-28 16:43 18.31252 -67.77664 19599 ft 412 kts 110°
2026-04-28 16:44 18.30400 -67.74765 20139 ft 417 kts 110°
2026-04-28 16:44 18.29538 -67.71833 20680 ft 422 kts 110°
2026-04-28 16:44 18.28664 -67.68863 21229 ft 427 kts 111°
2026-04-28 16:44 18.27779 -67.65857 21772 ft 432 kts 111°
2026-04-28 16:45 18.26887 -67.62827 22305 ft 436 kts 111°
2026-04-28 16:45 18.25983 -67.59763 22826 ft 441 kts 111°
2026-04-28 16:45 18.25069 -67.56666 23345 ft 446 kts 111°
2026-04-28 16:45 18.24155 -67.53528 23804 ft 451 kts 110°
2026-04-28 16:46 18.23535 -67.50309 24205 ft 459 kts 100°
2026-04-28 16:46 18.23380 -67.46897 24686 ft 463 kts 93°
2026-04-28 16:46 18.23455 -67.43538 25183 ft 468 kts 90°
2026-04-28 16:46 18.23649 -67.40103 25655 ft 473 kts 89°
2026-04-28 16:47 18.23901 -67.36630 26149 ft 477 kts 88°
2026-04-28 16:47 18.24170 -67.33128 26614 ft 481 kts 88°
2026-04-28 16:47 18.24435 -67.29606 27103 ft 486 kts 89°
2026-04-28 16:47 18.24690 -67.26042 27585 ft 490 kts 89°
2026-04-28 16:48 18.24935 -67.22451 28054 ft 494 kts 89°
2026-04-28 16:48 18.25174 -67.18825 28500 ft 499 kts 89°
2026-04-28 16:48 18.25344 -67.15159 28998 ft 502 kts 94°
2026-04-28 16:48 18.25335 -67.11467 29456 ft 506 kts 94°
2026-04-28 16:49 18.25285 -67.07747 29930 ft 511 kts 95°
2026-04-28 16:49 18.25210 -67.03991 30329 ft 515 kts 95°
2026-04-28 16:49 18.25126 -67.00255 30696 ft 519 kts 95°
2026-04-28 16:49 18.25037 -66.96444 31081 ft 522 kts 95°
2026-04-28 16:50 18.24950 -66.92614 31476 ft 525 kts 95°
2026-04-28 16:50 18.24863 -66.88757 31835 ft 528 kts 95°
2026-04-28 16:50 18.24778 -66.84893 32257 ft 530 kts 95°
2026-04-28 16:50 18.24692 -66.81001 32604 ft 533 kts 95°
2026-04-28 16:51 18.24605 -66.77088 32914 ft 537 kts 95°
2026-04-28 16:51 18.24519 -66.73153 33278 ft 539 kts 95°
2026-04-28 16:51 18.24431 -66.69200 33566 ft 542 kts 95°
2026-04-28 16:51 18.24341 -66.65220 33852 ft 546 kts 95°
2026-04-28 16:52 18.24250 -66.61223 34159 ft 548 kts 95°
2026-04-28 16:52 18.24159 -66.57205 34469 ft 549 kts 95°
2026-04-28 16:52 18.24138 -66.53192 34949 ft 547 kts 90°
2026-04-28 16:52 18.24683 -66.49240 35412 ft 547 kts 77°
2026-04-28 16:53 18.25854 -66.45444 35863 ft 545 kts 71°
2026-04-28 16:53 18.27203 -66.41768 36204 ft 546 kts 69°
2026-04-28 16:53 18.28683 -66.38022 36446 ft 548 kts 68°
2026-04-28 16:53 18.30167 -66.34387 36805 ft 548 kts 68°
2026-04-28 16:54 18.31679 -66.30705 37120 ft 547 kts 68°
2026-04-28 16:54 18.33179 -66.27034 37474 ft 546 kts 68°
2026-04-28 16:54 18.34668 -66.23362 37829 ft 544 kts 69°
2026-04-28 16:54 18.35662 -66.20893 38104 ft 542 kts 69°
2026-04-28 16:55 18.37601 -66.16052 38563 ft 541 kts 69°
2026-04-28 16:55 18.39056 -66.12403 38866 ft 540 kts 69°
2026-04-28 16:55 18.40507 -66.08759 39209 ft 539 kts 69°
2026-04-28 16:55 18.41947 -66.05107 39572 ft 538 kts 70°
2026-04-28 16:56 18.43045 -66.01359 39918 ft 534 kts 81°
2026-04-28 16:56 18.43390 -65.99276 40053 ft 532 kts 87°
2026-04-28 16:59 18.43532 -65.97338 40156 ft 529 kts 93°
2026-04-28 16:59 18.43313 -65.93522 40090 ft 515 kts 103°
2026-04-28 16:59 18.42733 -65.89805 39446 ft 513 kts 106°
2026-04-28 16:59 18.42005 -65.86116 38721 ft 514 kts 108°
2026-04-28 17:00 18.41211 -65.82441 37889 ft 516 kts 108°
2026-04-28 17:00 18.40406 -65.78797 37042 ft 519 kts 108°
2026-04-28 17:00 18.39593 -65.75083 36202 ft 522 kts 108°
2026-04-28 17:00 18.38792 -65.71352 35386 ft 525 kts 108°
2026-04-28 17:01 18.37999 -65.67588 34610 ft 527 kts 107°
2026-04-28 17:01 18.37216 -65.63815 33977 ft 526 kts 107°
2026-04-28 17:01 18.36447 -65.60073 33396 ft 522 kts 107°
2026-04-28 17:01 18.35684 -65.56344 33133 ft 520 kts 107°
2026-04-28 17:02 18.34928 -65.52642 33086 ft 509 kts 107°
2026-04-28 17:02 18.33483 -65.45533 32853 ft 488 kts 107°
2026-04-28 17:02 18.32770 -65.42051 32496 ft 486 kts 107°
2026-04-28 17:03 18.31349 -65.35167 31467 ft 481 kts 107°
2026-04-28 17:03 18.30638 -65.31733 30982 ft 478 kts 107°
2026-04-28 17:03 18.29939 -65.28320 30493 ft 476 kts 106°
2026-04-28 17:04 18.29827 -65.21394 29474 ft 475 kts 82°
2026-04-28 17:04 18.30611 -65.18028 29013 ft 471 kts 77°
2026-04-28 17:05 18.32503 -65.11525 28080 ft 463 kts 74°
2026-04-28 17:05 18.33501 -65.08318 27607 ft 459 kts 74°
2026-04-28 17:05 18.34463 -65.05128 27164 ft 455 kts 78°
2026-04-28 17:06 18.34752 -64.98616 26249 ft 442 kts 100°
2026-04-28 17:06 18.34353 -64.95424 25815 ft 438 kts 103°
2026-04-28 17:06 18.33309 -64.89160 24936 ft 431 kts 105°
2026-04-28 17:07 18.32761 -64.86067 24505 ft 428 kts 105°